[[{"header":{"parameterUnit":"m.s-1","parameterCategory":1,"la1":30.2991,"la2":30.254,"lo1":-89.0895,"lo2":-89.0444,"dy":0.0017,"dx":0.0017,"nx":28,"ny":28,"refTime":"2025-03-18T03:00:00:Z","depth":0,"parameterNumber":2,"parameterNumberName":"U-component_of_WINDS"},"data":[0,0,0,0,0,0,0,0,0,0,0,0,0,0,0,0,0,0,0,0,0,0,0,0,0,0,0,0,0,0,0,0,0,0,0,0,0,0,0,0,0,0,0,0,0,0,0,0,0,0,0,0,0,0,0,0,0,0,-0.903,-0.903,0,-0.9064,-0.9065,-0.9065,-0.9078,-0.9078,-0.9077,-0.9077,-0.9114,-0.9115,-0.9116,0,0,0,0,0,0,0,0,0,0,0,0,0,-0.8978,-0.8979,-0.903,-0.903,-0.9031,-0.9064,-0.9065,-0.9065,-0.9078,-0.9078,-0.9077,-0.9077,-0.9114,-0.9115,-0.9116,0,0,0,0,0,0,0,0,0,0,0,0,0,-0.9005,-0.8979,-0.903,-0.9041,-0.9042,-0.9064,-0.9065,-0.9065,-0.9078,-0.9078,-0.9077,-0.9077,-0.9113,-0.9115,-0.9117,-0.913,0,0,-0.9122,-0.9122,0,0,0,0,0,0,0,0,-0.9004,-0.9007,-0.9039,-0.904,-0.9042,-0.9066,-0.906,-0.9087,-0.9078,-0.9064,-0.9077,-0.9077,-0.9099,-0.9101,-0.9108,-0.9132,-0.9133,-0.9122,-0.9123,-0.9123,-0.9124,0,0,0,0,0,0,0,-0.9002,-0.9006,-0.9043,-0.9039,-0.9041,-0.9045,-0.9049,-0.9065,-0.9082,-0.9065,-0.9066,-0.907,-0.9099,-0.9107,-0.9109,-0.9134,-0.9122,-0.9123,-0.9124,-0.9125,-0.9171,-0.9172,0,0,0,0,0,0,-0.8998,-0.9004,-0.9042,-0.9044,-0.9022,-0.9046,-0.905,-0.9059,-0.9082,-0.9085,-0.907,-0.9071,-0.9104,-0.9107,-0.9111,-0.9128,-0.9123,-0.9125,-0.9126,-0.9171,-0.9171,-0.9172,0,0,0,0,0,0,-0.8996,-0.9001,-0.9041,-0.9025,-0.903,-0.9047,-0.9057,-0.9059,-0.9067,-0.9086,-0.9089,-0.9075,-0.9104,-0.9108,-0.9125,-0.913,-0.9126,-0.9127,-0.9171,-0.9171,-0.9172,-0.9164,0,0,0,0,0,0,-0.8995,-0.9,-0.9005,-0.9025,-0.9031,-0.9054,-0.9057,-0.906,-0.9069,-0.907,-0.909,-0.9094,-0.9104,-0.9123,-0.9127,-0.9132,-0.9128,-0.9171,-0.9171,-0.9172,-0.9164,-0.9164,-0.9164,0,0,0,0,0,-0.8993,-0.9002,-0.9005,-0.901,-0.9037,-0.9055,-0.9058,-0.907,-0.907,-0.9075,-0.9087,-0.9093,-0.9129,-0.9124,-0.9129,-0.9135,-0.917,-0.9171,-0.9171,-0.9164,-0.9164,-0.9164,0,0,0,0,0,0,-0.8983,-0.9004,-0.9009,-0.9024,-0.9037,-0.9057,-0.9063,-0.9069,-0.9083,-0.9084,-0.9098,-0.9102,-0.9118,-0.9128,-0.9123,-0.915,-0.915,-0.9152,-0.9142,-0.9143,-0.9143,-0.914,-0.913,0,0,0,0,0,-0.8982,-0.8994,-0.9013,-0.9024,-0.9031,-0.9046,-0.9054,-0.9062,-0.9077,-0.9082,-0.9096,-0.9111,-0.9125,-0.9135,-0.9149,-0.9165,-0.9171,-0.9172,-0.9172,-0.9172,-0.9173,-0.9183,-0.9185,-0.9174,-0.9174,-0.9174,0,0,-0.8981,-0.8995,-0.9001,-0.9022,-0.9034,-0.9047,-0.9051,-0.9064,-0.9074,-0.9085,-0.9101,-0.9112,-0.9129,-0.9146,-0.9154,-0.9155,-0.9177,-0.9173,-0.9173,-0.9174,-0.9184,-0.9185,-0.9186,-0.9174,-0.9174,-0.9174,0,0,-0.8986,-0.8997,-0.9008,-0.9019,-0.9036,-0.9047,-0.9049,-0.9068,-0.9075,-0.9092,-0.9101,-0.9114,-0.9138,-0.9151,-0.916,-0.9171,-0.9177,-0.9175,-0.9176,-0.9186,-0.9187,-0.9187,-0.9192,-0.9193,-0.9176,-0.9176,-0.9176,0,-0.8983,-0.9001,-0.9013,-0.9026,-0.9035,-0.9046,-0.9058,-0.9068,-0.9089,-0.9096,-0.9097,-0.9128,-0.9141,-0.9161,-0.9164,-0.9171,-0.9175,-0.9173,-0.9185,-0.9186,-0.9187,-0.9192,-0.9193,-0.9176,-0.9176,-0.9176,-0.9176,0,-0.8997,-0.901,-0.9017,-0.9037,-0.9047,-0.906,-0.9074,-0.9083,-0.909,-0.9101,-0.9119,-0.9134,-0.9152,-0.9158,-0.9165,-0.9179,-0.9179,-0.9182,-0.9183,-0.9188,-0.9192,-0.9194,-0.9175,-0.9176,-0.9176,-0.9176,0,0,-0.8996,-0.9022,-0.9024,-0.9034,-0.9054,-0.9065,-0.9078,-0.9095,-0.9103,-0.9118,-0.913,-0.9151,-0.9154,-0.9165,-0.9174,-0.9182,-0.9191,-0.9185,-0.9185,-0.9185,-0.9208,-0.9206,-0.9208,-0.9195,-0.9195,-0.9195,-0.9207,0,-0.9003,-0.9026,-0.9038,-0.9057,-0.9069,-0.908,-0.9092,-0.9106,-0.9116,-0.9129,-0.9141,-0.9156,-0.9159,-0.9165,-0.9174,-0.9188,-0.9195,-0.9187,-0.9207,-0.9208,-0.9202,-0.921,-0.9207,-0.9217,-0.9209,-0.9209,-0.9209,0,-0.9015,-0.9029,-0.9049,-0.9068,-0.9074,-0.9084,-0.9101,-0.9113,-0.913,-0.9137,-0.915,-0.9158,-0.9174,-0.9173,-0.9196,-0.919,-0.9199,-0.9206,-0.9207,-0.921,-0.9209,-0.9213,-0.9221,-0.9222,-0.9212,-0.9212,-0.9212,0,-0.9012,-0.9036,-0.9052,-0.9059,-0.9082,-0.9089,-0.9099,-0.9115,-0.9125,-0.9141,-0.9148,-0.9165,-0.9174,-0.9188,-0.9202,-0.92,-0.9223,-0.9223,-0.923,-0.9229,-0.9234,-0.9233,-0.9244,-0.9239,-0.9239,-0.9239,-0.9239,0,-0.902,-0.9032,-0.9051,-0.906,-0.9074,-0.9088,-0.9101,-0.9112,-0.9127,-0.9139,-0.915,-0.9161,-0.9179,-0.9193,-0.9204,-0.9221,-0.9225,-0.9232,-0.9234,-0.9231,-0.923,-0.9237,-0.9237,-0.924,-0.924,-0.924,-0.924,0,-0.9019,-0.9032,-0.905,-0.907,-0.9075,-0.9085,-0.9102,-0.9112,-0.9124,-0.9139,-0.9144,-0.9162,-0.9179,-0.9194,-0.9217,-0.9224,-0.9242,-0.9245,-0.9236,-0.9237,-0.9243,-0.9242,-0.9258,-0.9261,-0.9255,-0.9255,-0.9255,0,-0.9023,-0.9032,-0.9053,-0.9062,-0.9072,-0.9086,-0.9096,-0.911,-0.912,-0.914,-0.9148,-0.9166,-0.9181,-0.9208,-0.9224,-0.9242,-0.9246,-0.925,-0.9249,-0.9245,-0.9246,-0.9246,-0.9247,-0.925,-0.925,-0.925,-0.925,0,-0.9028,-0.9035,-0.9048,-0.9065,-0.9077,-0.909,-0.9105,-0.9112,-0.9129,-0.914,-0.9157,-0.9169,-0.9192,-0.921,-0.923,-0.9241,-0.9249,-0.9251,-0.9253,-0.925,-0.9244,-0.9248,-0.9236,-0.925,-0.925,-0.925,-0.925,-0.925,-0.903,-0.9039,-0.9056,-0.9071,-0.9083,-0.9096,-0.9107,-0.912,-0.9134,-0.9154,-0.9162,-0.918,-0.9197,-0.9224,-0.9236,-0.9251,-0.9252,-0.9255,-0.9256,-0.9257,-0.9257,-0.9242,-0.9254,-0.9254,-0.9254,-0.9254,-0.9255,0,-0.9037,-0.9048,-0.9062,-0.9081,-0.9094,-0.9099,-0.9116,-0.9126,-0.9141,-0.9157,-0.9171,-0.9192,-0.921,-0.9227,-0.9246,-0.9254,-0.9259,-0.9259,-0.9259,-0.9261,-0.9254,-0.925,-0.9255,-0.9255,-0.9255,-0.9255,-0.9255,-0.9255,-0.9042,-0.9057,-0.9066,-0.9088,-0.9099,-0.9116,-0.9125,-0.9138,-0.9151,-0.9173,-0.9187,-0.9198,-0.9215,-0.9235,-0.9252,-0.9257,-0.9263,-0.9263,-0.9269,-0.9262,-0.9262,-0.9261,-0.9258,-0.9264,-0.9264,-0.9274,-0.9274,-0.9275]},{"header":{"parameterUnit":"m.s-1","parameterCategory":1,"la1":30.2991,"la2":30.254,"lo1":-89.0895,"lo2":-89.0444,"dy":0.0017,"dx":0.0017,"nx":28,"ny":28,"refTime":"2025-03-18T03:00:00:Z","depth":0,"parameterNumber":3,"parameterNumberName":"V-component_of_WINDS"},"data":[0,0,0,0,0,0,0,0,0,0,0,0,0,0,0,0,0,0,0,0,0,0,0,0,0,0,0,0,0,0,0,0,0,0,0,0,0,0,0,0,0,0,0,0,0,0,0,0,0,0,0,0,0,0,0,0,0,0,7.1649,7.165,0,7.1752,7.1753,7.1754,7.17,7.1697,7.1694,7.1691,7.179,7.1795,7.18,0,0,0,0,0,0,0,0,0,0,0,0,0,7.1398,7.1403,7.1649,7.165,7.1652,7.1752,7.1753,7.1755,7.17,7.1697,7.1693,7.169,7.1788,7.1795,7.1801,0,0,0,0,0,0,0,0,0,0,0,0,0,7.1504,7.1404,7.1649,7.1637,7.1637,7.1752,7.1753,7.1755,7.1701,7.1697,7.1692,7.1689,7.1786,7.1794,7.1802,7.1933,0,0,7.1826,7.1829,0,0,0,0,0,0,0,0,7.1498,7.1513,7.1637,7.1638,7.1638,7.1709,7.1701,7.1814,7.1702,7.1676,7.1691,7.1687,7.1766,7.1775,7.1803,7.1937,7.1941,7.1826,7.1831,7.1834,7.1836,0,0,0,0,0,0,0,7.1491,7.1509,7.1689,7.1639,7.1639,7.1623,7.1634,7.1722,7.1743,7.1678,7.1674,7.1688,7.1765,7.1796,7.1805,7.1943,7.1826,7.1833,7.1838,7.1841,7.2186,7.219,0,0,0,0,0,0,7.1485,7.1503,7.1686,7.1693,7.1557,7.1631,7.1643,7.169,7.1742,7.1746,7.1691,7.1685,7.1785,7.1796,7.1809,7.1963,7.1834,7.1842,7.1846,7.2182,7.2187,7.2192,0,0,0,0,0,0,7.148,7.1502,7.1682,7.1597,7.1619,7.164,7.1693,7.1694,7.1725,7.1752,7.1754,7.1719,7.1782,7.1798,7.1902,7.1966,7.1845,7.1852,7.2176,7.2183,7.2189,7.2274,0,0,0,0,0,0,7.1473,7.1501,7.1552,7.1599,7.1623,7.1776,7.1697,7.1699,7.1739,7.1732,7.1779,7.1782,7.178,7.1891,7.191,7.1974,7.1858,7.2171,7.2179,7.2187,7.2266,7.2283,7.2298,0,0,0,0,0,7.1464,7.1571,7.1555,7.1578,7.1689,7.178,7.1794,7.1791,7.1745,7.1795,7.1812,7.1781,7.1956,7.1902,7.1923,7.1991,7.2166,7.2177,7.2187,7.2259,7.228,7.2298,0,0,0,0,0,0,7.153,7.1577,7.156,7.1686,7.173,7.1771,7.1835,7.1814,7.187,7.186,7.1852,7.1863,7.1971,7.1992,7.193,7.2119,7.2054,7.2069,7.2101,7.2122,7.2137,7.2129,7.1865,0,0,0,0,0,7.156,7.1632,7.1668,7.1776,7.1799,7.1813,7.1853,7.1847,7.1891,7.1909,7.1933,7.1975,7.2039,7.2082,7.2143,7.2269,7.2277,7.2326,7.2342,7.2355,7.2367,7.2433,7.2454,7.2225,7.2225,7.2225,0,0,7.1621,7.1655,7.1701,7.179,7.1823,7.1895,7.1829,7.1909,7.1962,7.192,7.202,7.204,7.2086,7.2201,7.2253,7.2221,7.2432,7.2368,7.2378,7.2383,7.2445,7.2467,7.2486,7.2232,7.2231,7.223,0,0,7.1768,7.1803,7.1895,7.193,7.1982,7.1991,7.2013,7.2058,7.207,7.2171,7.214,7.2201,7.2313,7.2347,7.2378,7.2538,7.251,7.2558,7.2641,7.2705,7.2723,7.2739,7.2793,7.2813,7.257,7.2571,7.2571,0,7.1837,7.1947,7.1945,7.2027,7.2066,7.2033,7.2125,7.2158,7.2226,7.2252,7.2216,7.2355,7.2384,7.2505,7.2544,7.2572,7.2594,7.2552,7.2721,7.2737,7.2752,7.2803,7.2824,7.2576,7.2575,7.2575,7.2574,0,7.2027,7.2104,7.2172,7.2241,7.2287,7.2374,7.2381,7.2428,7.2418,7.243,7.2531,7.2565,7.2631,7.266,7.265,7.278,7.2758,7.2722,7.2656,7.2779,7.2827,7.2847,7.2584,7.2582,7.258,7.2579,0,0,7.2219,7.2285,7.231,7.2339,7.2394,7.2452,7.2536,7.2602,7.2641,7.2689,7.2757,7.2852,7.2819,7.2855,7.2849,7.2906,7.3027,7.2862,7.2863,7.2889,7.3168,7.3193,7.3217,7.3009,7.3013,7.3016,7.3163,0,7.2368,7.2517,7.2517,7.2653,7.2723,7.2692,7.2765,7.2805,7.2818,7.2876,7.289,7.2956,7.2909,7.293,7.2985,7.3,7.3082,7.299,7.3069,7.3072,7.3057,7.3242,7.327,7.3407,7.3182,7.3186,7.3188,0,7.2563,7.2619,7.2763,7.2805,7.2834,7.29,7.296,7.3018,7.3061,7.3066,7.3106,7.3091,7.3173,7.3107,7.3218,7.3156,7.3188,7.32,7.3205,7.3211,7.3136,7.325,7.3451,7.3471,7.3218,7.3216,7.3214,0,7.2685,7.2796,7.2896,7.2923,7.2976,7.3022,7.3046,7.3086,7.3125,7.3177,7.3202,7.3262,7.3294,7.334,7.334,7.3292,7.3452,7.3386,7.3456,7.3456,7.3489,7.3487,7.3696,7.3514,7.3514,7.3513,7.3513,0,7.2851,7.2939,7.2951,7.3013,7.311,7.3108,7.3203,7.3222,7.3258,7.332,7.3297,7.3355,7.3353,7.3412,7.3412,7.3503,7.3518,7.3523,7.3521,7.3524,7.3523,7.3543,7.3533,7.3519,7.3518,7.3517,7.3516,0,7.3003,7.3015,7.3122,7.3164,7.3176,7.3246,7.328,7.3337,7.3348,7.3427,7.3445,7.3462,7.3529,7.3535,7.3613,7.3613,7.3722,7.3711,7.3708,7.3705,7.3774,7.3766,7.4001,7.4031,7.3832,7.3834,7.3836,0,7.3107,7.3175,7.3224,7.3265,7.3292,7.3359,7.3399,7.3399,7.3441,7.3495,7.3545,7.3611,7.3663,7.3772,7.3789,7.3848,7.3837,7.3915,7.3846,7.3845,7.3835,7.383,7.3836,7.3928,7.393,7.3932,7.3934,0,7.329,7.3292,7.3353,7.3415,7.3464,7.3513,7.3558,7.3592,7.3597,7.3645,7.3715,7.3756,7.3836,7.39,7.3958,7.3979,7.3957,7.3956,7.3975,7.3977,7.3971,7.3972,7.3742,7.395,7.3948,7.3947,7.3946,7.3946,7.342,7.3477,7.3521,7.3588,7.3622,7.3665,7.372,7.3738,7.3797,7.3863,7.3859,7.3936,7.3975,7.405,7.4076,7.4134,7.4107,7.4135,7.4142,7.4148,7.4154,7.3964,7.4145,7.4144,7.4144,7.4144,7.4143,0,7.3599,7.3626,7.3688,7.3752,7.3804,7.3781,7.3829,7.3874,7.3942,7.3982,7.4034,7.4113,7.4175,7.4198,7.4258,7.43,7.4291,7.4315,7.4311,7.4316,7.4176,7.4153,7.4321,7.4321,7.4321,7.4321,7.4321,7.4321,7.3698,7.3794,7.3802,7.3913,7.3938,7.4015,7.4044,7.4082,7.4113,7.4203,7.4256,7.4271,7.4303,7.4365,7.442,7.4424,7.4446,7.4475,7.4475,7.4344,7.4326,7.4309,7.4286,7.448,7.4481,7.4609,7.4611,7.4612]}]]